User: anonymous
Location: Slanting_Bridge
(35.6330°N, 80.9830°W)
Time: 09:44:20
(UTC-04:00)
Language:

Hamsat - Orbit

View from above orbital plane
View from above orbital plane
View from above satellite
View from above satellite

Ground track
Ground track

The orbit data is extracted from the following two-line orbital elements,

1 28650U 05017B   14233.48806399  .00000766  00000-0  93952-4 0  8231
2 28650 097.5621 235.2021 0023368 303.8458 056.0534 14.85673743502920
Epoch (UTC): 21 August 2014 11:42:48
Eccentricity: 0.0023368
inclination: 97.5621°
perigee height: 595 km
apogee height: 628 km
right ascension of ascending node: 235.2021°
argument of perigee: 303.8458°
revolutions per day: 14.85673743
mean anomaly at epoch: 56.0534°
orbit number at epoch: 50292

The dashed part of the orbit path shows where the satellite is in the earth's shadow,  

DLR